Location: *
(55.5817°S, 142.4781°W)
Time: 07:03:08
(UTC+00:00)

Cosmos 1943 Rocket - Pass Details

Date: 29 April 2025
Orbit: 812 x 841 km, 71.0° (Epoch: 23 May)

Event Time Altitude Azimuth Distance (km) Brightness Sun altitude
Exits shadow 13:10:52 18° 193° (SSW) 1,987 4.2 -31.0°
Maximum altitude 13:11:09 18° 190° (S) 1,984 4.2 -31.0°
Drops below altitude 10° 13:15:01 10° 147° (SSE) 2,500 5.2 -30.5°
Sets 13:18:20 0° 128° (SE) 3,435 6.4 -30.0°
